Orbital Elements at Epoch 2459000.5 (2020-May-31.0) TDB
Reference: JPL 15 (heliocentric ecliptic J2000)
Element | Value | Uncertainty (1-sigma) | Units |
e | .1979320153644338 | 3.2865e-08 | |
a | 2.186096019665041 | 9.9326e-09 | au |
q | 1.753397628712572 | 6.9091e-08 | au |
i | 7.932274086296012 | 5.2141e-06 | deg |
node | 80.93159567512326 | 4.8502e-05 | deg |
peri | 215.4876550093744 | 5.3541e-05 | deg |
M | 137.0660348014518 | 2.3217e-05 | deg |
tp | 2458551.000072976411 (2019-Mar-08.50007298) | 7.4717e-05 | TDB |
period | 1180.598635999778 3.23 | 8.0461e-06 2.203e-08 | d yr |
n | .3049300490637426 | 2.0782e-09 | deg/d |
Q | 2.618794410617509 | 1.1899e-08 | au |
|
| | Orbit Determination Parameters
Additional Information
|